Location: Calvatone
(45.1167°N, 10.4333°E)
Time: 16:46:01
(UTC+00:00)

BlueWalker 3 - Pass Details

Date: 12 June 2023
Orbit: 491 x 508 km, 53.2° (Epoch: 28 September)

Event Time Altitude Azimuth Distance (km) Brightness Sun altitude
Rises 19:47:40 0° 303° (WNW) 2,576 7.8 -6.6°
Reaches altitude 10° 19:49:56 10° 311° (NW) 1,695 6.5 -6.9°
Maximum altitude 19:53:34 40° 22° (NNE) 749 3.0 -7.4°
Drops below altitude 10° 19:57:12 10° 93° (E) 1,702 4.2 -7.8°
Enters shadow 19:58:13 - 98° (E) 2,087 4.6 -7.9°
